Location: ??
(35.1714°N, 128.2806°E)
Time: 15:15:33
(UTC+00:00)

ATLAS CENTAUR R/B - Pass Details

Date: 29 October 2020
Orbit: 479 x 667 km, 64.7° (Epoch: 26 November)

Event Time Altitude Azimuth Distance (km) Brightness Sun altitude
Rises 20:40:32 0° 212° (SSW) 2,700 4.6 -14.0°
Reaches altitude 10° 20:42:47 10° 215° (SW) 1,780 3.7 -13.5°
Maximum altitude 20:46:45 72° 300° (WNW) 542 1.1 -12.7°
Drops below altitude 10° 20:50:32 10° 25° (NNE) 1,702 4.0 -11.9°
Sets 20:52:39 0° 28° (NNE) 2,569 5.0 -11.5°
